• en Belgique
  • Liste des pays
  • À 7 jours
  • Température de l'eau
  • Carte satellitaire
  • Carte météo
  • Widgets météo
  • user-avatar
    Se connecter

    Météo par heure à Melbourne

    Ce jour, 24 Juin, Samedi

    Heure Température Précipitation Vent Pression Humidité
    00:00 +9°C° 0,3 mm 3 m/s 760 mmHg 86%
    01:00 +9°C° 0,3 mm 3 m/s 760 mmHg 90%
    02:00 +9°C° 0,1 mm 3 m/s 760 mmHg 90%
    03:00 +9°C° 0,1 mm 2 m/s 760 mmHg 91%
    04:00 +9°C° 0,1 mm 2 m/s 760 mmHg 91%
    05:00 +8°C° 0 mm 2 m/s 760 mmHg 90%
    06:00 +8°C° 0 mm 2 m/s 761 mmHg 90%
    07:00 +8°C° 0 mm 2 m/s 761 mmHg 89%
    08:00 +9°C° 0 mm 2 m/s 762 mmHg 83%
    09:00 +9°C° 0 mm 2 m/s 762 mmHg 77%
    10:00 +10°C° 0 mm 2 m/s 762 mmHg 72%
    11:00 +10°C° 0 mm 2 m/s 762 mmHg 66%
    12:00 +12°C° 0 mm 2 m/s 762 mmHg 59%
    13:00 +12°C° 0 mm 2 m/s 762 mmHg 53%
    14:00 +12°C° 0 mm 2 m/s 762 mmHg 53%
    15:00 +12°C° 0 mm 1 m/s 762 mmHg 53%
    16:00 +12°C° 0 mm 1 m/s 762 mmHg 53%
    17:00 +11°C° 0 mm 1 m/s 762 mmHg 58%
    18:00 +9°C° 0 mm 1 m/s 762 mmHg 63%
    19:00 +8°C° 0 mm 1 m/s 762 mmHg 68%
    20:00 +8°C° 0 mm 1 m/s 762 mmHg 68%
    21:00 +7°C° 0 mm 2 m/s 762 mmHg 68%
    22:00 +7°C° 0 mm 2 m/s 762 mmHg 69%
    23:00 +6°C° 0 mm 2 m/s 762 mmHg 72%

    Demain, 25 Juin, Dimanche

    Heure Température Précipitation Vent Pression Humidité
    00:00 +6°C° 0 mm 2 m/s 762 mmHg 75%
    01:00 +5°C° 0 mm 2 m/s 762 mmHg 78%
    02:00 +5°C° 0 mm 2 m/s 762 mmHg 80%
    03:00 +5°C° 0 mm 2 m/s 761 mmHg 81%
    04:00 +4°C° 0 mm 3 m/s 761 mmHg 82%
    05:00 +4°C° 0 mm 3 m/s 761 mmHg 84%
    06:00 +4°C° 0 mm 3 m/s 761 mmHg 85%
    07:00 +4°C° 0 mm 3 m/s 761 mmHg 86%
    08:00 +5°C° 0 mm 3 m/s 762 mmHg 80%
    09:00 +7°C° 0 mm 4 m/s 762 mmHg 74%
    10:00 +8°C° 0 mm 4 m/s 762 mmHg 69%
    11:00 +10°C° 0 mm 4 m/s 761 mmHg 65%
    12:00 +11°C° 0 mm 4 m/s 761 mmHg 61%
    13:00 +12°C° 0 mm 4 m/s 761 mmHg 57%
    14:00 +12°C° 0 mm 4 m/s 761 mmHg 58%
    15:00 +12°C° 0 mm 3 m/s 760 mmHg 59%
    16:00 +12°C° 0 mm 3 m/s 760 mmHg 61%
    17:00 +12°C° 0 mm 3 m/s 761 mmHg 65%
    18:00 +11°C° 0 mm 4 m/s 761 mmHg 69%
    19:00 +10°C° 0 mm 4 m/s 761 mmHg 74%
    20:00 +10°C° 0,1 mm 4 m/s 762 mmHg 77%
    21:00 +9°C° 0,1 mm 3 m/s 762 mmHg 80%
    22:00 +9°C° 0,1 mm 3 m/s 763 mmHg 84%
    23:00 +9°C° 0,2 mm 3 m/s 763 mmHg 86%

    Après-demain, 26 Juin, Lundi

    Heure Température Précipitation Vent Pression Humidité
    00:00 +9°C° 0,2 mm 3 m/s 763 mmHg 87%
    01:00 +9°C° 0,2 mm 2 m/s 764 mmHg 89%
    02:00 +9°C° 0 mm 2 m/s 764 mmHg 90%
    03:00 +9°C° 0 mm 2 m/s 764 mmHg 91%
    04:00 +9°C° 0 mm 2 m/s 764 mmHg 92%
    05:00 +8°C° 0 mm 2 m/s 765 mmHg 93%
    06:00 +7°C° 0 mm 2 m/s 765 mmHg 94%
    07:00 +7°C° 0 mm 2 m/s 766 mmHg 95%
    08:00 +8°C° 0 mm 2 m/s 766 mmHg 91%
    09:00 +9°C° 0 mm 2 m/s 767 mmHg 87%
    10:00 +10°C° 0 mm 2 m/s 767 mmHg 84%
    11:00 +12°C° 0,1 mm 2 m/s 767 mmHg 77%
    12:00 +13°C° 0,1 mm 2 m/s 767 mmHg 71%
    13:00 +13°C° 0,1 mm 2 m/s 767 mmHg 65%
    14:00 +13°C° 0 mm 2 m/s 767 mmHg 67%
    15:00 +13°C° 0 mm 1 m/s 767 mmHg 68%
    16:00 +13°C° 0 mm 1 m/s 767 mmHg 69%
    17:00 +11°C° 0 mm 1 m/s 768 mmHg 75%
    18:00 +10°C° 0 mm 1 m/s 768 mmHg 80%
    19:00 +9°C° 0 mm 1 m/s 768 mmHg 86%
    20:00 +9°C° 0 mm 1 m/s 768 mmHg 86%
    21:00 +9°C° 0 mm 1 m/s 769 mmHg 86%
    22:00 +9°C° 0 mm 1 m/s 769 mmHg 87%
    23:00 +8°C° 0 mm 1 m/s 769 mmHg 88%

    27 Juin, Mardi

    Heure Température Précipitation Vent Pression Humidité
    00:00 +8°C° 0 mm 1 m/s 768 mmHg 89%
    01:00 +8°C° 0 mm 1 m/s 768 mmHg 90%
    02:00 +8°C° 0 mm 1 m/s 768 mmHg 88%
    03:00 +8°C° 0 mm 1 m/s 768 mmHg 87%
    04:00 +9°C° 0 mm 1 m/s 768 mmHg 86%
    05:00 +9°C° 0 mm 1 m/s 768 mmHg 84%
    06:00 +9°C° 0 mm 1 m/s 768 mmHg 83%
    07:00 +9°C° 0 mm 1 m/s 768 mmHg 82%
    08:00 +9°C° 0 mm 2 m/s 768 mmHg 78%
    09:00 +9°C° 0 mm 2 m/s 769 mmHg 73%
    10:00 +10°C° 0 mm 2 m/s 769 mmHg 69%
    11:00 +12°C° 0 mm 2 m/s 768 mmHg 65%
    12:00 +13°C° 0 mm 2 m/s 768 mmHg 61%
    13:00 +13°C° 0 mm 2 m/s 767 mmHg 56%
    14:00 +13°C° 0 mm 2 m/s 767 mmHg 58%
    15:00 +13°C° 0 mm 2 m/s 766 mmHg 60%
    16:00 +13°C° 0 mm 2 m/s 766 mmHg 63%
    17:00 +12°C° 0 mm 2 m/s 766 mmHg 68%
    18:00 +10°C° 0 mm 3 m/s 767 mmHg 74%
    19:00 +9°C° 0 mm 3 m/s 767 mmHg 79%
    20:00 +8°C° 0 mm 3 m/s 767 mmHg 80%
    21:00 +8°C° 0 mm 3 m/s 767 mmHg 81%
    22:00 +8°C° 0 mm 2 m/s 767 mmHg 82%
    23:00 +8°C° 0 mm 3 m/s 767 mmHg 82%

    28 Juin, Mercredi

    Heure Température Précipitation Vent Pression Humidité
    00:00 +8°C° 0 mm 3 m/s 767 mmHg 81%
    01:00 +8°C° 0 mm 3 m/s 767 mmHg 81%
    02:00 +8°C° 0 mm 3 m/s 767 mmHg 81%
    03:00 +7°C° 0 mm 3 m/s 767 mmHg 82%
    04:00 +7°C° 0 mm 3 m/s 767 mmHg 83%
    05:00 +7°C° 0 mm 2 m/s 767 mmHg 83%
    06:00 +7°C° 0 mm 2 m/s 768 mmHg 84%
    07:00 +7°C° 0 mm 2 m/s 768 mmHg 84%
    08:00 +8°C° 0 mm 2 m/s 768 mmHg 80%
    09:00 +9°C° 0 mm 2 m/s 768 mmHg 76%
    10:00 +10°C° 0 mm 2 m/s 768 mmHg 72%
    11:00 +12°C° 0 mm 2 m/s 768 mmHg 67%
    12:00 +14°C° 0 mm 2 m/s 768 mmHg 62%
    13:00 +15°C° 0 mm 1 m/s 767 mmHg 57%
    14:00 +15°C° 0 mm 1 m/s 767 mmHg 59%
    15:00 +15°C° 0 mm 1 m/s 767 mmHg 61%
    16:00 +15°C° 0 mm 1 m/s 767 mmHg 64%
    17:00 +12°C° 0 mm 1 m/s 767 mmHg 72%
    18:00 +10°C° 0 mm 1 m/s 767 mmHg 81%
    19:00 +8°C° 0 mm 1 m/s 768 mmHg 89%
    20:00 +7°C° 0 mm 1 m/s 768 mmHg 90%
    21:00 +7°C° 0 mm 1 m/s 768 mmHg 91%
    22:00 +6°C° 0 mm 1 m/s 768 mmHg 92%
    23:00 +6°C° 0 mm 1 m/s 768 mmHg 93%

    29 Juin, Jeudi

    Heure Température Précipitation Vent Pression Humidité
    00:00 +6°C° 0 mm 1 m/s 768 mmHg 94%
    01:00 +6°C° 0 mm 1 m/s 768 mmHg 94%
    02:00 +6°C° 0 mm 1 m/s 768 mmHg 95%
    03:00 +6°C° 0 mm 1 m/s 768 mmHg 95%
    04:00 +6°C° 0 mm 1 m/s 768 mmHg 96%
    05:00 +6°C° 0 mm 1 m/s 768 mmHg 96%
    06:00 +6°C° 0 mm 1 m/s 768 mmHg 96%
    07:00 +6°C° 0 mm 1 m/s 769 mmHg 96%
    08:00 +7°C° 0 mm 1 m/s 769 mmHg 90%
    09:00 +9°C° 0 mm 1 m/s 769 mmHg 84%
    10:00 +11°C° 0 mm 1 m/s 769 mmHg 77%
    11:00 +12°C° 0 mm 1 m/s 768 mmHg 71%
    12:00 +14°C° 0 mm 2 m/s 768 mmHg 64%
    13:00 +15°C° 0 mm 2 m/s 767 mmHg 58%
    14:00 +15°C° 0 mm 2 m/s 767 mmHg 61%
    15:00 +14°C° 0 mm 2 m/s 768 mmHg 63%
    16:00 +14°C° 0 mm 2 m/s 768 mmHg 66%
    17:00 +13°C° 0 mm 2 m/s 768 mmHg 75%
    18:00 +10°C° 0 mm 2 m/s 769 mmHg 84%
    19:00 +9°C° 0 mm 2 m/s 770 mmHg 93%
    20:00 +9°C° 0,1 mm 3 m/s 770 mmHg 93%
    21:00 +9°C° 0,1 mm 3 m/s 770 mmHg 94%
    22:00 +9°C° 0,1 mm 3 m/s 770 mmHg 94%
    23:00 +9°C° 0 mm 3 m/s 770 mmHg 93%
    Voir plus